Location: Buisson
(44.2787°N, 4.9969°E)
Time: 02:32:52
(UTC+00:00)

Cosmos 1975 - Pass Details

Date: 18 April 2021
Orbit: 540 x 561 km, 82.5° (Epoch: 07 May)

Event Time Altitude Azimuth Distance (km) Brightness Sun altitude
Rises 02:07:55 0° 348° (NNW) 2,736 6.9 -25.4°
Reaches altitude 10° 02:10:06 10° 345° (NNW) 1,833 5.9 -25.1°
Enters shadow 02:12:38 36° 332° (NNW) 886 3.9 -24.8°
